Regional Weather Roundup
Issued by NWS

Home | Current Version | Previous Version | Graphics & Text | Print | Product List | Glossary Off
Versions: 1 2 3 4 5 6 7 8 9 10 11 12 13 14 15 16 17 18 19 20 21 22 23 24 25 26 27 28 29 30 31 32 33 34 35 36 37 38 39 40 41 42 43 44 45 46 47 48 49 50

000
ASUS43 KTOP 301008
RWRKS

WEATHER ROUNDUP FOR KANSAS
NATIONAL WEATHER SERVICE GOODLAND KS
500 AM CDT MON MAR 30 2015

NOTE:  "FAIR" INDICATES FEW OR NO CLOUDS BELOW 12,000 FEET WITH NO
SIGNIFICANT WEATHER AND/OR OBSTRUCTIONS TO VISIBILITY.

KSZ001>006-013>018-027>032-041>047-301100-
NORTHWEST KANSAS

CITY           SKY/WX    TMP DP  RH WIND       PRES   REMARKS
GOODLAND       CLEAR     43  23  45 S16       30.12F
HAYS           CLEAR     37  16  41 SW3       30.16S
HILL CITY      CLEAR     40  15  36 SW8       30.14S
RUSSELL        CLEAR     38  23  55 S12       30.14F WCI  30
$$

KSZ061>065-074>080-084>089-301100-
SOUTHWEST KANSAS

CITY           SKY/WX    TMP DP  RH WIND       PRES   REMARKS
DODGE CITY     CLEAR     41  23  48 S10       30.18S
ELKHART          N/A     47  25  42 S8          N/A
GARDEN CITY    CLEAR     39  25  57 S8        30.15F
GREAT BEND     CLEAR     30  19  64 S5        30.17F
LIBERAL        CLEAR     39  27  60 S8        30.20S
PRATT          CLEAR     45  28  53 S7        30.19F
$$

KSZ066>073-081>083-090>101-301100-
SOUTHEAST KANSAS

CITY           SKY/WX    TMP DP  RH WIND       PRES   REMARKS
CHANUTE        CLEAR     36  34  92 CALM      30.19F
COFFEYVILLE    CLEAR     35  34  96 NE3       30.19F
HUTCHINSON     CLEAR     32  27  81 CALM      30.20S
MEDICINE LODGE   N/A     39  31  72 CALM      30.19F
NEWTON         CLEAR     41  28  60 SW3       30.21R
PARSONS        CLEAR     34  32  92 CALM      30.20F
WICHITA INTL   CLEAR     38  31  76 CALM      30.19S
WICHITA JABRA  CLEAR     39  33  79 S5        30.19S
WICHITA MCCONL CLEAR     43  33  65 CALM      30.19S
WINFIELD       CLEAR     36  31  82 CALM      30.21S
$$

KSZ007>012-019>026-033>040-048>060-102>105-301100-
NORTHEAST KANSAS

CITY           SKY/WX    TMP DP  RH WIND       PRES   REMARKS
CONCORDIA      PTCLDY    45  26  47 SW9       30.15F
EMPORIA        CLEAR     35  30  82 W3        30.17R
LAWRENCE       CLEAR     28  25  88 CALM      30.18S
MANHATTAN      CLEAR     31  28  89 CALM      30.18S FOG
MARYSVILLE     CLEAR     34  30  86 S3        30.15F
OLATHE IND     CLEAR     34  29  82 CALM      30.18S
OLATHE EXE     CLEAR     40  33  76 CALM      30.16F
SALINA         CLEAR     33  22  63 SE5       30.18F
TOPEKA BILLARD CLEAR     34  32  92 CALM      30.18S
TOPEKA FORBES  CLEAR     34  30  85 CALM      30.17R
$$



USA.gov is the U.S. government's official web portal to all federal, state and local government web resources and services.